[[{"header":{"parameterUnit":"m.s-1","parameterCategory":1,"la1":30.2991,"la2":30.254,"lo1":-89.0895,"lo2":-89.0444,"dy":0.0017,"dx":0.0017,"nx":28,"ny":28,"refTime":"2023-10-09T09:00:00:Z","depth":0,"parameterNumber":2,"parameterNumberName":"U-component_of_WINDS"},"data":[0,0,0,0,0,0,0,0,0,0,0,0,0,0,0,0,0,0,0,0,0,0,0,0,0,0,0,0,0,0,0,0,0,0,0,0,0,0,0,0,0,0,0,0,0,0,0,0,0,0,0,0,0,0,0,0,0,0,-2.6181,-2.6182,0,-2.6235,-2.6236,-2.6236,-2.6186,-2.6184,-2.6182,-2.618,-2.6235,-2.6238,-2.6242,0,0,0,0,0,0,0,0,0,0,0,0,0,-2.6036,-2.6038,-2.6181,-2.6182,-2.6183,-2.6235,-2.6236,-2.6236,-2.6186,-2.6184,-2.6181,-2.6179,-2.6234,-2.6238,-2.6242,0,0,0,0,0,0,0,0,0,0,0,0,0,-2.6095,-2.6039,-2.6181,-2.6164,-2.6163,-2.6235,-2.6236,-2.6237,-2.6187,-2.6183,-2.618,-2.6178,-2.6233,-2.6238,-2.6243,-2.6334,0,0,-2.6258,-2.626,0,0,0,0,0,0,0,0,-2.6092,-2.61,-2.6166,-2.6165,-2.6164,-2.62,-2.6204,-2.6269,-2.6187,-2.6178,-2.618,-2.6176,-2.6226,-2.6231,-2.6248,-2.6337,-2.6339,-2.6258,-2.6261,-2.6264,-2.6265,0,0,0,0,0,0,0,-2.6088,-2.6098,-2.6202,-2.6167,-2.6166,-2.6153,-2.6159,-2.6217,-2.6218,-2.6178,-2.6175,-2.6182,-2.6225,-2.6243,-2.6249,-2.634,-2.6258,-2.6263,-2.6266,-2.6268,-2.6507,-2.651,0,0,0,0,0,0,-2.6085,-2.6095,-2.6201,-2.6204,-2.612,-2.6159,-2.6164,-2.6192,-2.6217,-2.6218,-2.6184,-2.6179,-2.6236,-2.6243,-2.6251,-2.636,-2.6264,-2.6268,-2.6271,-2.6504,-2.6508,-2.6512,0,0,0,0,0,0,-2.6082,-2.6095,-2.6199,-2.6148,-2.6161,-2.6164,-2.6196,-2.6195,-2.6213,-2.6222,-2.6222,-2.6203,-2.6234,-2.6244,-2.6314,-2.6361,-2.6271,-2.6275,-2.65,-2.6505,-2.651,-2.6579,0,0,0,0,0,0,-2.6078,-2.6095,-2.6129,-2.615,-2.6164,-2.6261,-2.6199,-2.6198,-2.6222,-2.6215,-2.6239,-2.624,-2.6233,-2.6307,-2.6319,-2.6366,-2.6279,-2.6496,-2.6502,-2.6508,-2.6572,-2.6585,-2.6597,0,0,0,0,0,-2.6073,-2.6147,-2.6131,-2.6144,-2.6207,-2.6264,-2.6272,-2.6261,-2.6226,-2.6261,-2.6267,-2.624,-2.6354,-2.6314,-2.6328,-2.6377,-2.6493,-2.65,-2.6508,-2.6567,-2.6583,-2.6597,0,0,0,0,0,0,-2.6132,-2.6149,-2.6132,-2.6214,-2.6238,-2.6255,-2.6299,-2.6278,-2.6313,-2.6305,-2.6291,-2.6297,-2.6371,-2.6381,-2.6337,-2.6468,-2.6418,-2.6428,-2.6458,-2.6473,-2.6485,-2.6481,-2.6283,0,0,0,0,0,-2.6154,-2.6199,-2.6211,-2.6282,-2.6295,-2.6295,-2.6319,-2.6309,-2.6333,-2.6343,-2.6354,-2.6378,-2.642,-2.6447,-2.6486,-2.6574,-2.6578,-2.6615,-2.6627,-2.6637,-2.6646,-2.6693,-2.6709,-2.6536,-2.6536,-2.6536,0,0,-2.6201,-2.6216,-2.6245,-2.6295,-2.6312,-2.6358,-2.6304,-2.6355,-2.6389,-2.6351,-2.6417,-2.6427,-2.6453,-2.6532,-2.6568,-2.6543,-2.6695,-2.6647,-2.6654,-2.6658,-2.6703,-2.6719,-2.6733,-2.6541,-2.654,-2.654,0,0,-2.631,-2.6326,-2.6386,-2.6405,-2.6431,-2.6431,-2.6446,-2.6466,-2.6471,-2.6538,-2.651,-2.655,-2.6622,-2.6642,-2.6661,-2.6779,-2.6755,-2.6792,-2.6855,-2.6901,-2.6915,-2.6927,-2.6968,-2.6983,-2.6801,-2.6801,-2.6801,0,-2.6364,-2.6433,-2.642,-2.6474,-2.6496,-2.6464,-2.6525,-2.6544,-2.6582,-2.6598,-2.657,-2.666,-2.6675,-2.6759,-2.6787,-2.6804,-2.6821,-2.6788,-2.6914,-2.6926,-2.6937,-2.6976,-2.6992,-2.6805,-2.6805,-2.6804,-2.6804,0,-2.6498,-2.6546,-2.6592,-2.663,-2.6658,-2.6715,-2.6711,-2.6741,-2.6729,-2.6732,-2.6801,-2.6818,-2.686,-2.6879,-2.6868,-2.6961,-2.6945,-2.6916,-2.6865,-2.6958,-2.6995,-2.701,-2.6811,-2.681,-2.6808,-2.6807,0,0,-2.6644,-2.6674,-2.6691,-2.6708,-2.6735,-2.6772,-2.6828,-2.6869,-2.6895,-2.6922,-2.6969,-2.7031,-2.7004,-2.7026,-2.7017,-2.7058,-2.7149,-2.7023,-2.7024,-2.7045,-2.7253,-2.7274,-2.7291,-2.7134,-2.7137,-2.7139,-2.725,0,-2.6753,-2.685,-2.6841,-2.6933,-2.6977,-2.6947,-2.6996,-2.7018,-2.7022,-2.706,-2.7065,-2.7109,-2.7071,-2.7084,-2.7123,-2.7129,-2.719,-2.7121,-2.7177,-2.7179,-2.717,-2.7311,-2.7333,-2.7437,-2.7264,-2.7267,-2.7269,0,-2.6893,-2.6925,-2.7022,-2.7042,-2.706,-2.7104,-2.7141,-2.7178,-2.7202,-2.7203,-2.7228,-2.7212,-2.7269,-2.7218,-2.7295,-2.7249,-2.7271,-2.7278,-2.7282,-2.7286,-2.7229,-2.7318,-2.747,-2.7486,-2.7291,-2.7289,-2.7288,0,-2.6989,-2.7057,-2.7123,-2.7138,-2.7164,-2.7196,-2.7208,-2.723,-2.7255,-2.7287,-2.7303,-2.7342,-2.7363,-2.7393,-2.7388,-2.7352,-2.7468,-2.7416,-2.7469,-2.747,-2.7494,-2.7493,-2.7652,-2.751,-2.751,-2.751,-2.7509,0,-2.7111,-2.7171,-2.7167,-2.7207,-2.7274,-2.7263,-2.7329,-2.7337,-2.7357,-2.7399,-2.7376,-2.7416,-2.7407,-2.7447,-2.7444,-2.7509,-2.7519,-2.7521,-2.7519,-2.7522,-2.7522,-2.7536,-2.7528,-2.7514,-2.7513,-2.7512,-2.7511,0,-2.723,-2.7229,-2.7299,-2.7318,-2.7324,-2.7372,-2.7388,-2.7427,-2.7429,-2.7483,-2.7495,-2.7499,-2.7545,-2.7543,-2.7595,-2.7593,-2.7673,-2.7663,-2.7664,-2.7662,-2.7715,-2.771,-2.7888,-2.7911,-2.7755,-2.7757,-2.7758,0,-2.7307,-2.7353,-2.7376,-2.7403,-2.7417,-2.746,-2.7485,-2.7476,-2.7504,-2.7536,-2.7571,-2.7614,-2.7649,-2.7724,-2.7732,-2.7771,-2.7762,-2.7822,-2.7768,-2.777,-2.7762,-2.7759,-2.7764,-2.7832,-2.7834,-2.7835,-2.7837,0,-2.7445,-2.7443,-2.748,-2.7517,-2.7548,-2.7577,-2.7604,-2.7627,-2.7621,-2.7654,-2.77,-2.7727,-2.778,-2.7824,-2.7862,-2.7875,-2.7855,-2.7854,-2.7868,-2.7872,-2.787,-2.7871,-2.7692,-2.7849,-2.7848,-2.7847,-2.7846,-2.7846,-2.7545,-2.7584,-2.7606,-2.7649,-2.7668,-2.7694,-2.7731,-2.7738,-2.7776,-2.7819,-2.7812,-2.7864,-2.7888,-2.7937,-2.7954,-2.7994,-2.7973,-2.7994,-2.7999,-2.8004,-2.801,-2.7864,-2.8002,-2.8001,-2.8001,-2.8001,-2.8,0,-2.7681,-2.7694,-2.7733,-2.7771,-2.7805,-2.7783,-2.7812,-2.7841,-2.7887,-2.7911,-2.7945,-2.7999,-2.8041,-2.8053,-2.8094,-2.8125,-2.8116,-2.8136,-2.8133,-2.8136,-2.8027,-2.801,-2.8141,-2.8141,-2.8141,-2.8141,-2.8141,-2.8141,-2.7756,-2.782,-2.7821,-2.7894,-2.7907,-2.7958,-2.7976,-2.7999,-2.8018,-2.8079,-2.8114,-2.8121,-2.814,-2.8182,-2.8221,-2.8223,-2.8239,-2.8262,-2.826,-2.8158,-2.8144,-2.813,-2.8114,-2.8265,-2.8266,-2.8366,-2.8367,-2.8368]},{"header":{"parameterUnit":"m.s-1","parameterCategory":1,"la1":30.2991,"la2":30.254,"lo1":-89.0895,"lo2":-89.0444,"dy":0.0017,"dx":0.0017,"nx":28,"ny":28,"refTime":"2023-10-09T09:00:00:Z","depth":0,"parameterNumber":3,"parameterNumberName":"V-component_of_WINDS"},"data":[0,0,0,0,0,0,0,0,0,0,0,0,0,0,0,0,0,0,0,0,0,0,0,0,0,0,0,0,0,0,0,0,0,0,0,0,0,0,0,0,0,0,0,0,0,0,0,0,0,0,0,0,0,0,0,0,0,0,2.2627,2.2627,0,2.266,2.266,2.2661,2.2644,2.2644,2.2643,2.2642,2.2673,2.2674,2.2676,0,0,0,0,0,0,0,0,0,0,0,0,0,2.2547,2.2548,2.2627,2.2627,2.2628,2.266,2.266,2.2661,2.2645,2.2644,2.2643,2.2642,2.2672,2.2674,2.2676,0,0,0,0,0,0,0,0,0,0,0,0,0,2.2581,2.2549,2.2627,2.2624,2.2624,2.266,2.266,2.2661,2.2645,2.2644,2.2642,2.2641,2.2671,2.2674,2.2676,2.2716,0,0,2.2683,2.2684,0,0,0,0,0,0,0,0,2.2579,2.2584,2.2624,2.2624,2.2624,2.2647,2.2643,2.2679,2.2645,2.2637,2.2642,2.264,2.2665,2.2668,2.2677,2.2718,2.2719,2.2684,2.2685,2.2686,2.2687,0,0,0,0,0,0,0,2.2577,2.2582,2.264,2.2624,2.2625,2.262,2.2623,2.265,2.2657,2.2637,2.2636,2.2641,2.2665,2.2674,2.2677,2.272,2.2684,2.2686,2.2687,2.2688,2.2796,2.2797,0,0,0,0,0,0,2.2575,2.2581,2.2639,2.2641,2.2598,2.2622,2.2626,2.2641,2.2657,2.2658,2.2642,2.264,2.2671,2.2674,2.2678,2.2726,2.2686,2.2688,2.269,2.2794,2.2796,2.2797,0,0,0,0,0,0,2.2573,2.258,2.2638,2.2611,2.2617,2.2625,2.2642,2.2642,2.2652,2.266,2.2661,2.265,2.267,2.2675,2.2707,2.2727,2.2689,2.2692,2.2792,2.2795,2.2797,2.2822,0,0,0,0,0,0,2.2571,2.258,2.2596,2.2611,2.2619,2.2667,2.2643,2.2644,2.2656,2.2654,2.2669,2.267,2.2669,2.2704,2.271,2.2729,2.2694,2.2791,2.2793,2.2796,2.282,2.2825,2.283,0,0,0,0,0,2.2568,2.2601,2.2597,2.2604,2.2639,2.2668,2.2672,2.2672,2.2658,2.2674,2.2679,2.2669,2.2724,2.2707,2.2714,2.2735,2.2789,2.2793,2.2796,2.2817,2.2824,2.283,0,0,0,0,0,0,2.2586,2.2603,2.2598,2.2637,2.2651,2.2665,2.2685,2.2679,2.2697,2.2694,2.2692,2.2695,2.2729,2.2735,2.2716,2.2775,2.2754,2.2759,2.2769,2.2775,2.278,2.2777,2.2696,0,0,0,0,0,2.2595,2.2618,2.2631,2.2664,2.2671,2.2677,2.269,2.2688,2.2703,2.2708,2.2716,2.273,2.275,2.2763,2.2782,2.2821,2.2824,2.2839,2.2844,2.2848,2.2851,2.2872,2.2879,2.2808,2.2808,2.2808,0,0,2.2612,2.2624,2.2639,2.2668,2.2679,2.2702,2.2682,2.2707,2.2724,2.2712,2.2743,2.2749,2.2764,2.28,2.2816,2.2806,2.2872,2.2852,2.2855,2.2856,2.2876,2.2883,2.2889,2.281,2.281,2.2809,0,0,2.2656,2.2668,2.2697,2.2709,2.2726,2.273,2.2737,2.2752,2.2756,2.2788,2.2779,2.2799,2.2834,2.2845,2.2855,2.2905,2.2896,2.2911,2.2936,2.2956,2.2962,2.2967,2.2984,2.299,2.2915,2.2915,2.2915,0,2.2675,2.271,2.2712,2.2738,2.275,2.2742,2.2771,2.2782,2.2804,2.2813,2.2802,2.2846,2.2856,2.2894,2.2906,2.2915,2.2922,2.2908,2.2961,2.2966,2.2971,2.2987,2.2993,2.2917,2.2916,2.2916,2.2916,0,2.2733,2.2758,2.2778,2.2802,2.2817,2.2844,2.2849,2.2864,2.2862,2.2867,2.2899,2.291,2.2932,2.2941,2.2939,2.2979,2.2972,2.2962,2.2941,2.2979,2.2994,2.3,2.2919,2.2918,2.2918,2.2917,0,0,2.2786,2.2812,2.2819,2.283,2.2849,2.2868,2.2895,2.2917,2.293,2.2946,2.2967,2.2998,2.2989,2.3,2.2999,2.3017,2.3055,2.3004,2.3005,2.3012,2.3099,2.3106,2.3114,2.305,2.3051,2.3052,2.3098,0,2.2831,2.2879,2.2881,2.2924,2.2947,2.294,2.2964,2.2978,2.2983,2.3002,2.3008,2.303,2.3016,2.3023,2.3041,2.3047,2.3072,2.3044,2.3069,2.307,2.3064,2.3121,2.3129,2.3171,2.3104,2.3105,2.3105,0,2.2888,2.2908,2.2954,2.297,2.298,2.3001,2.3022,2.3041,2.3056,2.3059,2.3073,2.307,2.3096,2.3077,2.3113,2.3093,2.3104,2.3109,2.3111,2.3112,2.3089,2.3123,2.3185,2.319,2.3115,2.3114,2.3113,0,2.2922,2.2959,2.2992,2.3001,2.3022,2.3037,2.3046,2.3061,2.3074,2.3092,2.31,2.3121,2.3132,2.3148,2.315,2.3135,2.3186,2.3166,2.3188,2.3188,2.3197,2.3196,2.326,2.3207,2.3207,2.3206,2.3206,0,2.297,2.2998,2.3007,2.3027,2.3058,2.3061,2.3091,2.3099,2.3112,2.3133,2.3129,2.3148,2.315,2.3169,2.3171,2.3201,2.3206,2.3208,2.3208,2.3208,2.3207,2.3214,2.321,2.3208,2.3208,2.3207,2.3207,0,2.3012,2.3019,2.3054,2.3072,2.3077,2.3099,2.3113,2.3132,2.3138,2.3163,2.317,2.3178,2.3201,2.3206,2.3232,2.3233,2.3268,2.3266,2.3263,2.3262,2.3283,2.3281,2.3352,2.3362,2.3303,2.3304,2.3304,0,2.3042,2.3063,2.3084,2.3098,2.3108,2.3131,2.3145,2.3148,2.3163,2.3183,2.3199,2.3222,2.324,2.3277,2.3285,2.3305,2.3303,2.3326,2.3305,2.3305,2.3302,2.33,2.3302,2.333,2.333,2.3331,2.3331,0,2.3093,2.3096,2.3117,2.314,2.3157,2.3175,2.3192,2.3203,2.3209,2.3226,2.325,2.3264,2.3292,2.3314,2.3335,2.3343,2.3338,2.3338,2.3344,2.3343,2.3341,2.3341,2.3273,2.3336,2.3336,2.3335,2.3335,2.3335,2.3129,2.3148,2.3166,2.3189,2.3203,2.3219,2.3237,2.3246,2.3267,2.329,2.3291,2.3318,2.3333,2.336,2.337,2.339,2.3383,2.3391,2.3393,2.3395,2.3397,2.3339,2.3394,2.3394,2.3394,2.3394,2.3394,0,2.318,2.3191,2.3213,2.3237,2.3256,2.3252,2.327,2.3285,2.3309,2.3324,2.3343,2.3371,2.3393,2.3403,2.3425,2.3439,2.3437,2.3444,2.3442,2.3444,2.3403,2.3395,2.3445,2.3445,2.3445,2.3445,2.3445,2.3445,2.3208,2.324,2.3245,2.3283,2.3294,2.3321,2.3332,2.3346,2.3359,2.3391,2.3409,2.3417,2.343,2.3453,2.3472,2.3475,2.3482,2.3491,2.3492,2.3452,2.3447,2.3442,2.3435,2.3492,2.3493,2.3531,2.3532,2.3532]}]]